EZY21YL EGKK-EKCH

Flight info

Callsign EZY21YL
Flight time 1h 27m
Altitude 37000
Route FRANE M604 PAAVO Q295 SOMVA DCT MAVAS DCT DOSUR DCT TALSA P729 TUDLO
Aircraft A320/M-SDE2E3FGHIJ1RWXYZ/LB1

Departure

Time 2026-05-04 19:56
Airport London Gatwick Airport (EGKK)

Arrival

Time 2026-05-04 21:23
Airport Copenhagen Kastrup Airport (EKCH)
Time Latitude Longitude Altitude Speed Heading
2026-05-04 19:00 51.15565 -0.17817 204 ft 0 kts 348°
2026-05-04 19:10 51.15565 -0.17816 204 ft 0 kts 348°
2026-05-04 19:31 51.15561 -0.17815 204 ft 3 kts 348°
2026-05-04 19:31 51.15534 -0.17806 212 ft 4 kts 348°
2026-05-04 19:32 51.15514 -0.17798 207 ft 4 kts 330°
2026-05-04 19:32 51.15502 -0.17773 212 ft 4 kts 260°
2026-05-04 19:32 51.15507 -0.17739 216 ft 1 kts 258°
2026-05-04 19:36 51.15506 -0.17743 216 ft 2 kts 258°
2026-05-04 19:37 51.15502 -0.17774 212 ft 4 kts 258°
2026-05-04 19:37 51.15494 -0.17834 205 ft 7 kts 258°
2026-05-04 19:37 51.15482 -0.17921 204 ft 9 kts 257°
2026-05-04 19:37 51.15467 -0.18033 204 ft 12 kts 258°
2026-05-04 19:38 51.15450 -0.18153 204 ft 11 kts 258°
2026-05-04 19:38 51.15422 -0.18273 205 ft 12 kts 216°
2026-05-04 19:38 51.15336 -0.18256 207 ft 14 kts 167°
2026-05-04 19:38 51.15241 -0.18225 209 ft 12 kts 168°
2026-05-04 19:39 51.15185 -0.18302 212 ft 14 kts 266°
2026-05-04 19:39 51.15167 -0.18468 210 ft 16 kts 258°
2026-05-04 19:39 51.15141 -0.18654 207 ft 18 kts 256°
2026-05-04 19:39 51.15112 -0.18865 213 ft 20 kts 257°
2026-05-04 19:40 51.15083 -0.19078 209 ft 20 kts 258°
2026-05-04 19:40 51.15055 -0.19288 212 ft 19 kts 258°
2026-05-04 19:40 51.15026 -0.19495 212 ft 19 kts 256°
2026-05-04 19:40 51.14997 -0.19702 211 ft 19 kts 258°
2026-05-04 19:41 51.14968 -0.19912 208 ft 19 kts 257°
2026-05-04 19:41 51.14939 -0.20126 213 ft 20 kts 257°
2026-05-04 19:41 51.14907 -0.20345 207 ft 20 kts 258°
2026-05-04 19:41 51.14877 -0.20569 206 ft 21 kts 256°
2026-05-04 19:42 51.14846 -0.20800 203 ft 22 kts 258°
2026-05-04 19:42 51.14815 -0.21017 204 ft 17 kts 257°
2026-05-04 19:42 51.14792 -0.21157 208 ft 12 kts 246°
2026-05-04 19:42 51.14771 -0.21268 204 ft 0 kts 259°
2026-05-04 19:44 51.14770 -0.21280 204 ft 3 kts 259°
2026-05-04 19:44 51.14763 -0.21335 204 ft 7 kts 259°
2026-05-04 19:45 51.14734 -0.21406 212 ft 8 kts 200°
2026-05-04 19:45 51.14726 -0.21406 206 ft 0 kts 182°
2026-05-04 19:51 51.14716 -0.21405 208 ft 2 kts 173°
2026-05-04 19:51 51.14693 -0.21394 210 ft 5 kts 162°
2026-05-04 19:51 51.14664 -0.21358 208 ft 6 kts 132°
2026-05-04 19:52 51.14621 -0.21327 204 ft 5 kts 168°
2026-05-04 19:52 51.14620 -0.21326 204 ft 0 kts 168°
2026-05-04 19:52 51.14619 -0.21326 204 ft 1 kts 168°
2026-05-04 19:53 51.14603 -0.21321 208 ft 4 kts 168°
2026-05-04 19:53 51.14570 -0.21309 205 ft 6 kts 162°
2026-05-04 19:53 51.14529 -0.21250 202 ft 10 kts 124°
2026-05-04 19:53 51.14523 -0.21145 202 ft 10 kts 77°
2026-05-04 19:54 51.14524 -0.21135 203 ft 0 kts 76°
2026-05-04 19:55 51.14561 -0.20871 204 ft 60 kts 77°
2026-05-04 19:55 51.14698 -0.19883 210 ft 121 kts 77°
2026-05-04 19:55 51.14915 -0.18307 216 ft 168 kts 76°
2026-05-04 19:56 51.15160 -0.16543 932 ft 159 kts 77°
2026-05-04 19:56 51.15399 -0.14814 1585 ft 163 kts 76°
2026-05-04 19:56 51.15658 -0.12940 1912 ft 185 kts 76°
2026-05-04 19:56 51.15949 -0.10822 2211 ft 206 kts 77°
2026-05-04 19:57 51.16272 -0.08471 2562 ft 230 kts 76°
2026-05-04 19:57 51.16628 -0.05873 3087 ft 248 kts 77°
2026-05-04 19:57 51.16895 -0.03124 3867 ft 256 kts 89°
2026-05-04 19:57 51.16848 -0.00254 4668 ft 263 kts 90°
2026-05-04 19:58 51.16793 0.02641 4923 ft 265 kts 90°
2026-05-04 19:58 51.16736 0.05581 4990 ft 265 kts 90°
2026-05-04 19:58 51.16679 0.08510 4994 ft 265 kts 90°
2026-05-04 19:58 51.16624 0.11456 4990 ft 266 kts 90°
2026-05-04 19:59 51.16569 0.14397 4984 ft 265 kts 90°
2026-05-04 19:59 51.16528 0.17327 4984 ft 264 kts 90°
2026-05-04 19:59 51.16528 0.20257 4984 ft 265 kts 89°
2026-05-04 19:59 51.16542 0.23196 5015 ft 267 kts 88°
2026-05-04 20:00 51.16557 0.26169 5793 ft 269 kts 88°
2026-05-04 20:00 51.16572 0.29169 6648 ft 273 kts 89°
2026-05-04 20:00 51.16583 0.32214 7448 ft 277 kts 89°
2026-05-04 20:00 51.16591 0.35302 8269 ft 280 kts 90°
2026-05-04 20:01 51.16595 0.38424 9091 ft 284 kts 90°
2026-05-04 20:01 51.16418 0.41568 9882 ft 287 kts 108°
2026-05-04 20:01 51.15653 0.44576 10309 ft 304 kts 115°
2026-05-04 20:01 51.14705 0.47717 10659 ft 321 kts 115°
2026-05-04 20:02 51.14087 0.51160 11275 ft 328 kts 94°
2026-05-04 20:02 51.14366 0.54760 11997 ft 332 kts 71°
2026-05-04 20:02 51.15510 0.57939 12733 ft 335 kts 48°
2026-05-04 20:02 51.17358 0.60207 13488 ft 339 kts 27°
2026-05-04 20:03 51.19602 0.61458 14174 ft 344 kts 17°
2026-05-04 20:03 51.21919 0.62497 14805 ft 348 kts 17°
2026-05-04 20:03 51.24263 0.63523 15397 ft 352 kts 17°
2026-05-04 20:03 51.26633 0.64572 16003 ft 356 kts 17°
2026-05-04 20:04 51.29035 0.65633 16577 ft 360 kts 16°
2026-05-04 20:04 51.31464 0.66704 17151 ft 364 kts 16°
2026-05-04 20:04 51.33916 0.67799 17753 ft 368 kts 15°
2026-05-04 20:04 51.36396 0.68949 18283 ft 374 kts 17°
2026-05-04 20:05 51.38902 0.70130 18800 ft 377 kts 16°
2026-05-04 20:05 51.41402 0.71315 19254 ft 382 kts 16°
2026-05-04 20:05 51.43967 0.72535 19782 ft 385 kts 16°
2026-05-04 20:05 51.46545 0.73765 20308 ft 388 kts 17°
2026-05-04 20:06 51.49179 0.75025 20825 ft 392 kts 16°
2026-05-04 20:06 51.51868 0.75786 21325 ft 395 kts
2026-05-04 20:06 51.54581 0.76127 21832 ft 398 kts
2026-05-04 20:06 51.57348 0.76462 22349 ft 401 kts
2026-05-04 20:07 51.60180 0.76795 22853 ft 404 kts
2026-05-04 20:07 51.62963 0.77114 23340 ft 408 kts
2026-05-04 20:07 51.65842 0.77448 23794 ft 412 kts
2026-05-04 20:07 51.68674 0.77781 24196 ft 415 kts
2026-05-04 20:08 51.71559 0.78124 24604 ft 418 kts
2026-05-04 20:08 51.74471 0.78475 24998 ft 420 kts
2026-05-04 20:08 51.77395 0.78833 25390 ft 423 kts
2026-05-04 20:08 51.80305 0.79676 25764 ft 427 kts 16°
2026-05-04 20:09 51.83056 0.81489 26177 ft 428 kts 29°
2026-05-04 20:09 51.85372 0.84488 26560 ft 429 kts 52°
2026-05-04 20:09 51.86827 0.88644 26911 ft 427 kts 75°
2026-05-04 20:09 51.87284 0.93358 27234 ft 425 kts 89°
2026-05-04 20:10 51.87486 0.98152 27558 ft 429 kts 85°
2026-05-04 20:10 51.88024 1.02932 27846 ft 435 kts 76°
2026-05-04 20:10 51.89068 1.07542 28165 ft 439 kts 68°
2026-05-04 20:10 51.90295 1.12088 28506 ft 442 kts 67°
2026-05-04 20:11 51.91587 1.16621 28844 ft 444 kts 66°
2026-05-04 20:11 51.92896 1.21166 29174 ft 446 kts 66°
2026-05-04 20:11 51.94200 1.25746 29489 ft 449 kts 66°
2026-05-04 20:11 51.95485 1.30358 29800 ft 451 kts 67°
2026-05-04 20:12 51.96760 1.35019 30101 ft 453 kts 68°
2026-05-04 20:12 51.98025 1.39711 30361 ft 455 kts 68°
2026-05-04 20:12 51.99283 1.44421 30615 ft 457 kts 68°
2026-05-04 20:12 52.00544 1.49163 30859 ft 458 kts 68°
2026-05-04 20:13 52.01809 1.53920 31115 ft 460 kts 68°
2026-05-04 20:13 52.03081 1.58690 31357 ft 461 kts 68°
2026-05-04 20:13 52.04360 1.63476 31586 ft 463 kts 67°
2026-05-04 20:13 52.05641 1.68271 31900 ft 462 kts 67°
2026-05-04 20:14 52.06918 1.73056 32241 ft 461 kts 67°
2026-05-04 20:14 52.08189 1.77833 32580 ft 460 kts 68°
2026-05-04 20:14 52.09452 1.82605 32908 ft 459 kts 68°
2026-05-04 20:14 52.10708 1.87364 33242 ft 458 kts 68°
2026-05-04 20:15 52.11963 1.92122 33572 ft 457 kts 68°
2026-05-04 20:15 52.13216 1.96869 33895 ft 456 kts 68°
2026-05-04 20:15 52.14467 2.01613 34182 ft 456 kts 68°
2026-05-04 20:15 52.15715 2.06358 34431 ft 456 kts 68°
2026-05-04 20:16 52.16957 2.11106 34660 ft 456 kts 68°
2026-05-04 20:16 52.18196 2.15859 34877 ft 456 kts 68°
2026-05-04 20:16 52.19434 2.20613 35105 ft 456 kts 68°
2026-05-04 20:16 52.20671 2.25372 35313 ft 456 kts 68°
2026-05-04 20:17 52.21908 2.30126 35527 ft 456 kts 68°
2026-05-04 20:17 52.22727 2.33283 35661 ft 456 kts 68°
2026-05-04 20:17 52.23961 2.38050 35855 ft 456 kts 68°
2026-05-04 20:17 52.25190 2.42811 36057 ft 456 kts 68°
2026-05-04 20:18 52.26420 2.47584 36244 ft 456 kts 68°
2026-05-04 20:18 52.27650 2.52365 36393 ft 457 kts 68°
2026-05-04 20:18 52.28879 2.57158 36547 ft 458 kts 68°
2026-05-04 20:18 52.30123 2.62022 36729 ft 458 kts 68°
2026-05-04 20:19 52.31170 2.66853 36905 ft 457 kts 75°
2026-05-04 20:19 52.32041 2.71836 37026 ft 456 kts 75°
2026-05-04 20:19 52.32915 2.76817 37045 ft 455 kts 75°
2026-05-04 20:20 52.34661 2.86736 37046 ft 453 kts 75°
2026-05-04 20:20 52.36400 2.96651 37045 ft 453 kts 75°
2026-05-04 20:21 52.38129 3.06585 37038 ft 455 kts 75°
2026-05-04 20:21 52.41790 3.20866 37036 ft 457 kts 54°
2026-05-04 20:22 52.45606 3.29183 37038 ft 457 kts 53°
2026-05-04 20:22 52.49419 3.37533 37047 ft 457 kts 53°
2026-05-04 20:23 52.53213 3.45904 37047 ft 457 kts 53°
2026-05-04 20:23 52.56997 3.54275 37035 ft 457 kts 53°
2026-05-04 20:24 52.60785 3.62678 37029 ft 458 kts 53°
2026-05-04 20:24 52.64575 3.71107 37035 ft 458 kts 53°
2026-05-04 20:25 52.68341 3.79493 37038 ft 458 kts 53°
2026-05-04 20:25 52.72121 3.87955 37051 ft 458 kts 53°
2026-05-04 20:26 52.75898 3.96426 37056 ft 458 kts 53°
2026-05-04 20:26 52.79665 4.04905 37035 ft 458 kts 53°
2026-05-04 20:27 52.83421 4.13403 37033 ft 458 kts 53°
2026-05-04 20:27 52.87172 4.21909 37032 ft 458 kts 53°
2026-05-04 20:28 52.90923 4.30434 37032 ft 458 kts 54°
2026-05-04 20:28 52.94659 4.38973 37046 ft 458 kts 54°
2026-05-04 20:29 52.98390 4.47532 37047 ft 457 kts 54°
2026-05-04 20:29 53.02115 4.56099 37045 ft 457 kts 54°
2026-05-04 20:30 53.05836 4.64676 37042 ft 457 kts 54°
2026-05-04 20:30 53.09530 4.73207 37034 ft 457 kts 54°
2026-05-04 20:31 53.13238 4.81809 37035 ft 458 kts 54°
2026-05-04 20:31 53.16937 4.90440 37046 ft 458 kts 54°
2026-05-04 20:32 53.20625 4.99087 37042 ft 457 kts 54°
2026-05-04 20:32 53.24303 5.07726 37040 ft 457 kts 54°
2026-05-04 20:33 53.27984 5.16380 37029 ft 457 kts 54°
2026-05-04 20:33 53.31662 5.25059 37027 ft 458 kts 54°
2026-05-04 20:34 53.35334 5.33764 37033 ft 458 kts 54°
2026-05-04 20:34 53.39004 5.42484 37035 ft 458 kts 54°
2026-05-04 20:35 53.42666 5.51223 37038 ft 458 kts 54°
2026-05-04 20:35 53.46321 5.59978 37035 ft 458 kts 54°
2026-05-04 20:36 53.49969 5.68746 37030 ft 458 kts 54°
2026-05-04 20:36 53.53606 5.77534 37022 ft 458 kts 55°
2026-05-04 20:37 53.57245 5.86347 37015 ft 459 kts 55°
2026-05-04 20:37 53.60889 5.95172 37027 ft 459 kts 54°
2026-05-04 20:38 53.64522 6.04006 37027 ft 459 kts 54°
2026-05-04 20:38 53.68143 6.12877 37027 ft 459 kts 55°
2026-05-04 20:39 53.71756 6.21766 37034 ft 459 kts 55°
2026-05-04 20:39 53.75373 6.30662 37025 ft 460 kts 55°
2026-05-04 20:40 53.78981 6.39594 37028 ft 460 kts 55°
2026-05-04 20:40 53.82591 6.48548 37045 ft 461 kts 55°
2026-05-04 20:41 53.86198 6.57514 37047 ft 461 kts 55°
2026-05-04 20:41 53.89796 6.66508 37052 ft 461 kts 55°
2026-05-04 20:42 53.93384 6.75518 37052 ft 461 kts 55°
2026-05-04 20:42 53.96964 6.84532 37041 ft 461 kts 55°
2026-05-04 20:43 54.00551 6.93571 37039 ft 462 kts 55°
2026-05-04 20:43 54.04133 7.02643 37056 ft 462 kts 55°
2026-05-04 20:44 54.07682 7.11688 37058 ft 462 kts 55°
2026-05-04 20:44 54.11247 7.20785 37059 ft 462 kts 55°
2026-05-04 20:45 54.14805 7.29908 37060 ft 462 kts 56°
2026-05-04 20:45 54.18357 7.39037 37058 ft 462 kts 56°
2026-05-04 20:46 54.21896 7.48189 37040 ft 462 kts 56°
2026-05-04 20:46 54.25432 7.57360 37042 ft 462 kts 56°
2026-05-04 20:47 54.28969 7.66547 37063 ft 462 kts 56°
2026-05-04 20:47 54.32496 7.75750 37054 ft 462 kts 56°
2026-05-04 20:48 54.36008 7.84958 37051 ft 462 kts 56°
2026-05-04 20:48 54.39518 7.94184 37043 ft 462 kts 56°
2026-05-04 20:49 54.43017 8.03425 37044 ft 461 kts 56°
2026-05-04 20:49 54.46511 8.12687 37027 ft 462 kts 56°
2026-05-04 20:50 54.49998 8.21960 37029 ft 462 kts 56°
2026-05-04 20:50 54.53484 8.31249 37025 ft 462 kts 56°
2026-05-04 20:51 54.56961 8.40559 37019 ft 462 kts 56°
2026-05-04 20:51 54.60429 8.49895 37019 ft 462 kts 56°
2026-05-04 20:52 54.63886 8.59231 37018 ft 462 kts 56°
2026-05-04 20:52 54.67345 8.68584 37003 ft 462 kts 56°
2026-05-04 20:53 54.70801 8.77967 37025 ft 463 kts 56°
2026-05-04 20:53 54.74239 8.87377 37026 ft 462 kts 56°
2026-05-04 20:54 54.77669 8.96796 37019 ft 462 kts 56°
2026-05-04 20:54 54.81071 9.06161 37018 ft 462 kts 56°
2026-05-04 20:55 54.84508 9.15660 37012 ft 462 kts 56°
2026-05-04 20:55 54.88391 9.24380 37010 ft 459 kts 46°
2026-05-04 20:56 54.92620 9.32703 37018 ft 459 kts 46°
2026-05-04 20:56 54.96837 9.41037 37016 ft 459 kts 46°
2026-05-04 20:57 55.01057 9.49387 37014 ft 459 kts 46°
2026-05-04 20:57 55.05269 9.57758 37005 ft 459 kts 47°
2026-05-04 20:58 55.09372 9.66331 36985 ft 462 kts 55°
2026-05-04 20:58 55.12112 9.76478 36985 ft 465 kts 72°
2026-05-04 20:59 55.14026 9.87275 37003 ft 465 kts 72°
2026-05-04 20:59 55.15964 9.98066 36992 ft 466 kts 72°
2026-05-04 21:00 55.17898 10.08896 36990 ft 467 kts 72°
2026-05-04 21:00 55.19806 10.19760 36986 ft 467 kts 72°
2026-05-04 21:01 55.21699 10.30642 36991 ft 467 kts 72°
2026-05-04 21:01 55.22643 10.36081 36405 ft 465 kts 72°
2026-05-04 21:01 55.23575 10.41463 35568 ft 458 kts 73°
2026-05-04 21:02 55.24490 10.46767 34811 ft 451 kts 73°
2026-05-04 21:02 55.25391 10.51987 34099 ft 444 kts 73°
2026-05-04 21:02 55.26275 10.57114 33274 ft 437 kts 73°
2026-05-04 21:02 55.27146 10.62197 32392 ft 433 kts 73°
2026-05-04 21:03 55.27999 10.67178 31520 ft 431 kts 73°
2026-05-04 21:03 55.28860 10.72200 30661 ft 429 kts 73°
2026-05-04 21:03 55.29721 10.77203 29785 ft 428 kts 73°
2026-05-04 21:03 55.30578 10.82181 28929 ft 424 kts 73°
2026-05-04 21:04 55.31415 10.87078 28308 ft 413 kts 73°
2026-05-04 21:04 55.32225 10.91860 27625 ft 405 kts 73°
2026-05-04 21:04 55.33021 10.96561 26883 ft 399 kts 73°
2026-05-04 21:04 55.33805 11.01214 26133 ft 396 kts 73°
2026-05-04 21:05 55.34331 11.04354 25809 ft 395 kts 73°
2026-05-04 21:05 55.35090 11.08911 25384 ft 392 kts 73°
2026-05-04 21:05 55.35852 11.13504 24945 ft 391 kts 73°
2026-05-04 21:05 55.36607 11.18075 24489 ft 389 kts 73°
2026-05-04 21:06 55.37356 11.22632 24067 ft 387 kts 73°
2026-05-04 21:06 55.38098 11.27168 23653 ft 385 kts 73°
2026-05-04 21:06 55.38835 11.31676 23196 ft 383 kts 73°
2026-05-04 21:06 55.39570 11.36162 22755 ft 380 kts 73°
2026-05-04 21:07 55.40298 11.40612 22319 ft 377 kts 73°
2026-05-04 21:07 55.41020 11.45036 21895 ft 375 kts 73°
2026-05-04 21:07 55.41732 11.49435 21479 ft 372 kts 73°
2026-05-04 21:07 55.42436 11.53807 21079 ft 370 kts 73°
2026-05-04 21:08 55.43138 11.58155 20669 ft 368 kts 72°
2026-05-04 21:08 55.44149 11.62249 20289 ft 363 kts 57°
2026-05-04 21:08 55.45650 11.65755 19904 ft 357 kts 42°
2026-05-04 21:08 55.47472 11.68680 19520 ft 353 kts 38°
2026-05-04 21:09 55.49314 11.71537 19137 ft 352 kts 38°
2026-05-04 21:09 55.51144 11.74389 18778 ft 350 kts 38°
2026-05-04 21:09 55.52954 11.77223 18423 ft 348 kts 38°
2026-05-04 21:09 55.54761 11.80062 18027 ft 346 kts 38°
2026-05-04 21:10 55.56551 11.82881 17626 ft 345 kts 38°
2026-05-04 21:10 55.58336 11.85697 17231 ft 343 kts 38°
2026-05-04 21:10 55.60113 11.88506 16848 ft 342 kts 38°
2026-05-04 21:10 55.61882 11.91298 16474 ft 340 kts 38°
2026-05-04 21:11 55.63644 11.94077 16111 ft 339 kts 38°
2026-05-04 21:11 55.65397 11.96842 15752 ft 337 kts 38°
2026-05-04 21:11 55.67139 11.99600 15336 ft 334 kts 38°
2026-05-04 21:11 55.68863 12.02339 14697 ft 332 kts 38°
2026-05-04 21:12 55.70573 12.05053 14079 ft 329 kts 39°
2026-05-04 21:12 55.72082 12.08101 13479 ft 330 kts 57°
2026-05-04 21:12 55.72997 12.11813 12832 ft 329 kts 76°
2026-05-04 21:12 55.73230 12.15803 12193 ft 324 kts 95°
2026-05-04 21:13 55.73001 12.19761 11533 ft 321 kts 98°
2026-05-04 21:13 55.72762 12.23635 10924 ft 318 kts 97°
2026-05-04 21:13 55.72524 12.27569 10323 ft 315 kts 97°
2026-05-04 21:13 55.72292 12.31411 9708 ft 312 kts 97°
2026-05-04 21:14 55.72056 12.35217 9052 ft 309 kts 97°
2026-05-04 21:14 55.71822 12.38928 8419 ft 305 kts 97°
2026-05-04 21:14 55.71587 12.42626 7791 ft 301 kts 97°
2026-05-04 21:14 55.71354 12.46295 7159 ft 298 kts 97°
2026-05-04 21:15 55.71321 12.49938 6541 ft 294 kts 83°
2026-05-04 21:15 55.71799 12.53453 6120 ft 292 kts 67°
2026-05-04 21:15 55.72777 12.56569 5754 ft 288 kts 54°
2026-05-04 21:15 55.73865 12.59534 5359 ft 286 kts 55°
2026-05-04 21:16 55.74943 12.62485 4985 ft 284 kts 55°
2026-05-04 21:16 55.76012 12.65413 4601 ft 282 kts 55°
2026-05-04 21:16 55.77072 12.68324 4220 ft 279 kts 55°
2026-05-04 21:16 55.78114 12.71205 3850 ft 276 kts 55°
2026-05-04 21:17 55.79142 12.74050 3489 ft 272 kts 55°
2026-05-04 21:17 55.80160 12.76866 3118 ft 269 kts 55°
2026-05-04 21:17 55.81161 12.79643 2994 ft 265 kts 55°
2026-05-04 21:17 55.82128 12.82363 2996 ft 252 kts 59°
2026-05-04 21:18 55.82582 12.85250 3004 ft 241 kts 91°
2026-05-04 21:18 55.82138 12.88073 3006 ft 239 kts 123°
2026-05-04 21:18 55.80987 12.90132 3006 ft 235 kts 153°
2026-05-04 21:18 55.79450 12.90956 3006 ft 230 kts 182°
2026-05-04 21:19 55.77913 12.90419 3004 ft 225 kts 210°
2026-05-04 21:19 55.76670 12.88807 3009 ft 222 kts 224°
2026-05-04 21:19 55.75515 12.86982 3008 ft 222 kts 224°
2026-05-04 21:19 55.74358 12.85163 3004 ft 223 kts 224°
2026-05-04 21:20 55.73204 12.83359 2834 ft 218 kts 224°
2026-05-04 21:20 55.72080 12.81605 2565 ft 211 kts 224°
2026-05-04 21:20 55.71012 12.79941 2293 ft 199 kts 225°
2026-05-04 21:20 55.69993 12.78351 2050 ft 191 kts 224°
2026-05-04 21:21 55.69031 12.76853 1790 ft 178 kts 225°
2026-05-04 21:21 55.68128 12.75448 1530 ft 167 kts 225°
2026-05-04 21:21 55.67296 12.74154 1312 ft 153 kts 225°
2026-05-04 21:21 55.66528 12.72959 1135 ft 143 kts 225°
2026-05-04 21:22 55.65793 12.71816 928 ft 139 kts 225°
2026-05-04 21:22 55.65072 12.70694 729 ft 137 kts 224°
2026-05-04 21:22 55.64365 12.69595 541 ft 137 kts 223°
2026-05-04 21:22 55.63647 12.68470 336 ft 136 kts 223°
2026-05-04 21:23 55.62938 12.67372 152 ft 135 kts 223°
2026-05-04 21:23 55.62247 12.66282 27 ft 127 kts 218°
2026-05-04 21:23 55.61708 12.65462 23 ft 77 kts 220°
2026-05-04 21:23 55.61443 12.65051 25 ft 25 kts 221°
2026-05-04 21:24 55.61331 12.64861 25 ft 21 kts 233°
2026-05-04 21:24 55.61269 12.64667 25 ft 13 kts 245°
2026-05-04 21:24 55.61236 12.64524 23 ft 12 kts 256°
2026-05-04 21:24 55.61217 12.64395 25 ft 10 kts 255°
2026-05-04 21:25 55.61195 12.64291 24 ft 8 kts 249°
2026-05-04 21:25 55.61188 12.64202 24 ft 7 kts 276°
2026-05-04 21:25 55.61206 12.64140 24 ft 5 kts 314°
2026-05-04 21:25 55.61232 12.64113 24 ft 4 kts 338°
2026-05-04 21:26 55.61257 12.64105 24 ft 6 kts 355°
2026-05-04 21:26 55.61328 12.64164 25 ft 14 kts 34°
2026-05-04 21:26 55.61405 12.64257 24 ft 12 kts 37°
2026-05-04 21:26 55.61473 12.64334 25 ft 11 kts 30°
2026-05-04 21:27 55.61532 12.64400 25 ft 9 kts 35°
2026-05-04 21:27 55.61583 12.64461 24 ft 8 kts 33°
2026-05-04 21:27 55.61628 12.64514 25 ft 8 kts 32°
2026-05-04 21:27 55.61683 12.64576 26 ft 11 kts 33°
2026-05-04 21:28 55.61754 12.64659 24 ft 14 kts 32°
2026-05-04 21:28 55.61842 12.64758 26 ft 16 kts 33°
2026-05-04 21:28 55.61947 12.64881 23 ft 20 kts 35°
2026-05-04 21:28 55.62070 12.65018 24 ft 21 kts 34°
2026-05-04 21:29 55.62168 12.65136 24 ft 18 kts 32°
2026-05-04 21:29 55.62279 12.65195 24 ft 17 kts 357°
2026-05-04 21:29 55.62389 12.65201 27 ft 12 kts 359°
2026-05-04 21:29 55.62441 12.65306 24 ft 15 kts 85°
2026-05-04 21:30 55.62442 12.65486 24 ft 14 kts 89°
2026-05-04 21:30 55.62444 12.65642 24 ft 11 kts 88°
2026-05-04 21:30 55.62446 12.65790 24 ft 13 kts 90°
2026-05-04 21:30 55.62448 12.65962 24 ft 13 kts 88°
2026-05-04 21:31 55.62523 12.66048 24 ft 7 kts 303°
2026-05-04 21:31 55.62541 12.66001 25 ft 1 kts 304°
2026-05-04 21:31 55.62547 12.65984 24 ft 1 kts 303°
2026-05-04 21:32 55.62551 12.65975 24 ft 0 kts 303°
2026-05-04 21:32 55.62552 12.65971 24 ft 1 kts 303°
2026-05-04 21:32 55.62558 12.65955 25 ft 2 kts 304°
2026-05-04 21:32 55.62560 12.65950 24 ft 0 kts 304°